Back to catalog

COSMOS 1867 COOLANT

AliveLEO
NORAD 39645·DEBRIS·🇷🇺 Russia

Launched Jul 10, 1987 from Baikonur Cosmodrome

Loading…

Next Passes (next 24 hours)

TLE

FreshSource: Space-Track

Epoch: Sep 14, 2026, 05:33 UTC

1 39645U 87060N   26257.23127834  .00000126  00000-0  81212-4 0  9997
2 39645  65.0098 122.4974 0019015 279.9701  79.9239 14.33871214650326

Track COSMOS 1867 COOLANT in real time with AllMySat

Download on the App Store